Location: ??????????
(54.8537°N, 38.8755°E)
Time: 01:38:05
(UTC+00:00)

Transit 4A - Pass Details

Date: 20 September 2024
Orbit: 865 x 977 km, 66.8° (Epoch: 09 October)

Event Time Altitude Azimuth Distance (km) Brightness Sun altitude
Exits shadow 22:50:18 36° 101° (ESE) 1,384 8.8 -31.4°
Drops below altitude 10° 22:55:08 10° 51° (NE) 2,614 11.0 -31.0°
Sets 22:57:51 0° 44° (NE) 3,580 12.0 -30.8°
